Banff, Alberta

5:16 AM MDT on May 20, 2018 (GMT -0600)
Banff

Weather History for CWZG - December, 2012

Change the Weather History Date:

Monday, December 17, 2012

  Actual Average Record
Temperature  
Mean Temperature 16 °F -  
Max Temperature 22 °F - - ()
Min Temperature 11 °F - - ()
Degree Days  
Heating Degree Days 48    
Moisture  
Dew Point 13 °F    
Average Humidity 84    
Maximum Humidity 90    
Minimum Humidity 69    
Precipitation  
Precipitation 0.24 in - - ()
Sea Level Pressure  
Sea Level Pressure 29.36 in    
Wind  
Wind Speed 3 mph ()    
Max Wind Speed 8 mph    
Max Gust Speed -    
T = Trace of Precipitation, MM = Missing Value Source: Averaged Metar Reports

Daily Weather History Graph

Daily Weather History Graph

Search for Another Location

Airport or City:

Astronomy

Dec. 17, 2012 Rise Set
Actual Time 8:41 AM MST 4:35 PM MST
Civil Twilight 8:01 AM MST 5:15 PM MST
Nautical Twilight 7:19 AM MST 5:58 PM MST
Astronomical Twilight 6:38 AM MST 6:38 PM MST
Moon 11:23 AM MST (12/17) 10:34 PM MST (12/17)
Length of Visible Light 9h 13m
Length of Day
7h 53m
Waxing Crescent, 25% of the Moon is Illuminated
Dec 17
Waxing Crescent
Dec 19
First Quarter
Dec 28
Full
Jan 4
Last Quarter
Jan 11
New

Hourly Weather History & Observations

Time (MST) Temp. Windchill Dew Point Humidity Pressure Visibility Wind Dir Wind Speed Gust Speed Precip Events Conditions
12:00 AM 12.2 °F - 8.4 °F 85% 29.46 in - Calm Calm - N/A   Unknown
1:00 AM 13.1 °F 7.1 °F 10.0 °F 88% 29.43 in - SW 3.5 mph - N/A   Unknown
2:00 AM 14.4 °F 4.3 °F 9.7 °F 82% 29.40 in - SW 6.9 mph - N/A   Unknown
3:00 AM 13.8 °F - 10.6 °F 87% 29.37 in - SW 2.3 mph - N/A   Unknown
4:00 AM 13.1 °F - 10.0 °F 88% 29.34 in - Calm Calm - N/A   Unknown
5:00 AM 13.5 °F - 10.8 °F 89% 29.33 in - NE 1.2 mph - N/A   Unknown
6:00 AM 14.4 °F - 11.7 °F 89% 29.31 in - NE 1.2 mph - N/A   Unknown
7:00 AM 14.9 °F - 12.2 °F 89% 29.29 in - ENE 2.3 mph - N/A   Unknown
8:00 AM 14.7 °F - 12.0 °F 89% 29.28 in - NE 1.2 mph - N/A   Unknown
9:00 AM 11.7 °F - 9.0 °F 89% 29.29 in - Calm Calm - N/A   Unknown
10:00 AM 13.5 °F - 10.9 °F 90% 29.31 in - SW 1.2 mph - N/A   Unknown
11:00 AM 17.4 °F 12.1 °F 10.9 °F 76% 29.30 in - SW 3.5 mph - N/A   Unknown
12:00 PM 19.0 °F 12.3 °F 11.7 °F 73% 29.28 in - SW 4.6 mph - N/A   Unknown
1:00 PM 22.1 °F 13.7 °F 13.3 °F 69% 29.26 in - SW 6.9 mph - N/A   Unknown
2:00 PM 21.6 °F 13.0 °F 13.5 °F 71% 29.26 in - SW 6.9 mph - N/A   Unknown
6:00 PM 21.6 °F 13.0 °F 17.2 °F 83% 29.38 in - SW 6.9 mph - N/A   Unknown
7:00 PM 21.2 °F 13.6 °F 17.6 °F 86% 29.41 in - WSW 5.8 mph - N/A   Unknown
8:00 PM 21.4 °F 15.1 °F 17.4 °F 85% 29.45 in - WSW 4.6 mph - N/A   Unknown
9:00 PM 21.4 °F 13.8 °F 17.2 °F 84% 29.47 in - WSW 5.8 mph - N/A   Unknown
10:00 PM 21.0 °F 13.4 °F 17.1 °F 85% 29.47 in - West 5.8 mph - N/A   Unknown
11:00 PM 22.5 °F 13.2 °F 17.2 °F 80% 29.50 in - SW 8.1 mph - N/A   Unknown